CAPE
4059 4219 4237 4184 4038 3377 3394 3556 3258 3166 3191 2883 2938 2606 2566 2477 2206 2206 2100 1754 1608 1399 1634 1339 1077 975 1057 927 672 835 1720 562 712 623 549 798 606 389 317 298 131 85
4061 4232 4102 4222 4191 3668 3790 3542 3353 3206 3345 3318 2954 2932 2963 2234 2409 2373 2130 1853 1553 1298 1523 1305 1047 1236 1087 879 892 820 970 851 536 591 627 564 702 585 182 238 272 548
4061 4121 4241 4023 4037 3774 2998 3369 3689 3460 3276 3212 3103 3066 2622 2336 1858 2163 2190 1782 1327 1101 1439 1284 1030 1199 982 1050 785 736 821 965 778 334 891 716 743 588 445 108 194 143
4145 4153 3872 3628 3607 3691 3204 3342 3708 3416 3275 2957 2926 2724 2381 1884 1858 1836 2121 1845 1660 1424 1240 1074 956 841 837 862 658 632 719 896 846 662 1170 1014 481 559 536 468 195 376
4277 4209 3954 3667 3525 3672 3574 3408 2887 3344 2896 2914 2755 2638 2521 2509 2211 1740 1838 1668 1730 1488 1300 1150 1204 875 820 702 869 657 738 866 819 867 800 1316 926 749 646 517 452 494
4362 4316 4238 3944 3602 3806 3678 3409 3132 3013 2890 2716 2762 2611 2626 2752 2167 1787 1668 1478 1491 1095 928 928 1042 759 828 721 945 914 670 544 579 906 906 699 844 532 522 687 679 499
4457 4488 4310 4007 3740 3793 3780 3552 3299 3103 2956 2529 2740 2647 2474 2564 2150 1877 1630 1463 1200 1102 775 778 895 854 790 798 763 884 947 688 643 786 658 699 750 721 416 580 788 644
4189 4297 4291 4044 3805 3772 3638 3632 3498 3314 3193 2893 2760 2779 2670 2399 2226 1945 1791 1589 1220 1002 866 974 1026 1048 877 840 794 824 850 684 714 1062 761 585 460 480 664 378 311 578
4442 4599 4454 4182 3724 3516 3028 3154 3550 3530 3364 3034 2692 2744 2752 2494 2292 1936 1846 1646 1094 920 1028 1153 1123 1067 955 931 817 893 780 684 659 892 914 686 670 648 621 600 532 606
4581 4713 4124 3857 3480 3178 2893 2817 2949 3297 3312 3182 2743 2509 2833 2678 2375 1920 1881 1590 1063 954 1080 1195 1210 1046 990 1007 968 922 809 744 649 687 645 634 573 578 623 640 588 587
4340 4430 4603 4298 3761 3325 3099 2903 3094 3221 3158 2988 2728 2416 2886 2794 2371 1924 1862 1552 1092 990 1048 1169 1210 1152 1117 903 1020 877 793 770 803 797 774 619 623 618 736 609 496 512
4060 4233 4500 4154 3952 3406 3172 3016 3075 3222 3363 3264 3016 2776 3105 2757 2374 1845 1703 1564 1169 1118 1066 1118 1202 1254 1238 937 888 828 789 781 892 1053 915 822 747 683 717 763 731 719
4188 4182 4455 4271 4202 3814 3406 3308 3106 3004 3105 3170 3058 2912 2838 2600 2398 1938 1625 1538 1208 1166 1111 1152 1281 1250 1216 1121 1011 951 835 822 830 900 834 803 712 627 532 586 597 706
4551 4244 4184 4467 4388 4226 3736 3404 3255 3019 3110 3521 3262 3144 2716 2570 2402 2105 1682 1480 1259 1188 1292 1290 1242 1210 1237 1229 1204 1099 867 781 790 842 728 674 635 618 470 354 460 508
4642 4412 4196 4382 4437 4552 4102 3762 3530 3211 3111 3672 3636 3312 2814 2544 2393 1985 1534 1556 1396 1254 1464 1224 998 1084 1154 1251 1259 959 736 694 832 835 705 601 617 574 516 480 490 491
4848 4675 4521 4606 4628 4676 4370 3964 3612 3438 3190 3651 3703 3420 3072 2698 2490 2162 1618 1606 1568 1552 1493 1174 794 896 938 1094 956 757 580 557 724 776 733 620 676 612 510 611 600 436
5171 5188 5002 4914 4918 4720 4428 4134 3902 3692 3454 3643 3722 3448 3096 2859 2805 2055 1731 1704 1951 1483 902 782 1202 1023 1015 859 585 434 408 502 685 866 960 874 728 729 712 734 738 746
5416 5559 5644 5419 5206 4949 4665 4360 4221 4103 3858 3639 3428 3531 3275 2976 2848 2231 1700 1980 1989 1330 931 1007 1103 1213 1200 1075 824 587 410 469 724 969 1076 989 820 759 846 898 866 782
5782 5990 5997 5914 5630 5212 4876 4682 4638 4472 4324 4175 3894 3668 3517 3173 2837 2400 2193 2159 2009 1494 1132 1324 1370 1440 1433 1309 1130 804 599 415 406 838 897 836 802 908 936 1052 1178 1064
6177 6212 6112 5971 5782 5496 5133 4938 4802 4479 4152 4106 3721 3514 3332 2949 2664 2550 2424 2302 1924 1745 1421 1500 1502 1700 1704 1578 1088 771 640 468 961 1064 677 519 872 941 899 844 1215 2214
6333 6110 5934 5880 5624 5351 5066 4949 4651 4500 4186 3699 3363 3101 3000 2765 2423 2297 2169 2091 1549 1570 1628 1570 1616 1627 1723 1712 854 632 506 488 500 826 1092 1014 846 546 380 575 2112 2010
6040 5898 5799 5511 5244 5024 4861 4697 4564 4512 4135 3828 3475 3256 2920 2901 2607 2146 2183 1739 1693 1662 1669 1766 1651 1722 1702 1724 1399 847 581 635 544 429 538 436 737 1023 950 1728 1838 2042
5870 5717 5402 5089 4852 4580 4376 4252 4200 4220 4101 3732 3313 3128 2972 3060 2812 2333 1889 1786 1784 1863 1846 1754 1737 1694 1674 1714 1654 1401 875 755 610 503 413 332 449 898 995 1450 2075 2105
5815 5662 5350 4932 4581 4259 4030 3786 3573 3633 3720 3606 3209 2658 2542 2508 2338 2392 2040 1824 1812 1862 1856 1806 1731 1673 1616 1543 1421 1266 994 820 632 549 556 389 434 784 991 1494 1999 2097
5505 5529 5230 4715 4416 4068 3626 3398 3148 3266 3073 3156 2869 2807 2445 2252 2244 1977 1836 1568 1336 1222 1296 1459 1622 1622 1528 1457 1320 1218 1063 915 752 691 541 334 532 773 1144 1888 1448 1439
5247 5237 5079 4676 4394 4047 3666 3577 3113 2698 2987 2671 2517 2515 2382 2091 2355 1833 1572 1278 1074 972 828 806 1113 2013 1488 1359 1244 1174 1112 1062 978 845 694 571 748 1033 768 702 808 710
Wind_Speed
20 20 18 18 19 19 19 20 19 16 17 18 20 20 20 19 20 23 25 25 25 25 26 27 26 27 26 27 26 26 28 31 30 34 31 31 32 28 29 28 25 nan
20 21 19 19 19 20 19 20 20 17 16 19 20 21 20 21 19 24 26 27 28 28 28 29 29 28 28 28 29 29 29 31 30 34 35 34 30 30 29 28 26 25
22 21 21 20 21 21 21 20 21 18 18 19 21 22 21 24 23 24 28 29 30 31 30 30 29 29 29 30 31 32 32 33 34 34 38 37 34 32 28 27 29 26
22 21 21 21 21 22 21 21 20 20 20 19 20 22 23 24 25 26 26 29 30 30 30 30 30 30 31 31 35 34 34 35 36 36 36 39 36 31 29 27 27 26
21 21 21 21 21 22 21 21 20 21 21 20 20 21 23 23 26 27 26 27 29 30 29 31 31 32 33 33 37 37 37 38 38 39 39 39 34 31 29 28 27 26
21 21 22 22 21 22 22 21 19 21 21 22 22 22 23 24 25 26 27 29 30 31 31 33 34 34 36 36 38 40 40 41 42 40 40 36 28 25 26 29 30 28
22 22 23 22 21 21 22 20 19 20 21 19 21 22 24 24 25 25 26 27 30 31 32 34 36 36 38 38 39 40 41 43 43 39 35 30 25 23 25 28 30 30
23 23 22 21 20 21 21 21 19 20 21 19 21 23 24 24 25 25 26 28 30 31 32 35 36 37 40 39 40 40 41 43 38 30 27 25 25 26 28 29 29 30
23 22 21 20 20 20 21 21 20 20 21 21 21 22 23 24 26 26 27 29 30 31 31 34 36 37 38 39 40 39 39 38 30 20 23 28 29 30 32 32 33 32
21 20 20 19 19 20 22 21 21 22 21 21 20 20 23 24 26 26 28 29 30 31 32 34 37 37 37 39 42 40 36 33 27 23 26 30 29 30 32 34 36 37
21 21 19 19 20 20 23 22 22 23 22 23 22 22 23 25 26 27 28 31 32 33 34 36 38 39 39 39 40 40 36 32 31 31 33 32 28 28 31 34 36 38
21 20 19 20 21 21 23 22 22 22 23 24 25 25 25 26 28 28 30 32 33 35 36 37 39 39 39 39 39 40 38 36 35 35 36 34 30 28 29 32 36 38
22 20 19 20 20 20 19 20 22 23 23 24 26 28 29 29 29 31 31 34 36 37 38 39 40 42 41 40 39 40 39 39 38 38 38 36 32 29 30 32 34 36
21 20 20 20 18 18 18 19 21 21 21 21 24 28 32 33 33 33 34 36 39 41 43 43 44 45 45 44 43 41 40 39 40 40 39 38 33 30 31 34 35 37
20 19 18 19 18 19 19 19 20 21 21 23 24 25 28 32 34 35 37 39 41 43 46 48 48 49 48 48 47 45 41 40 41 40 40 38 34 31 32 35 37 39
19 18 17 17 18 19 20 19 20 22 23 25 26 26 27 29 32 36 38 41 44 46 48 50 50 49 51 54 52 47 44 41 41 40 39 36 34 33 34 37 38 38
19 17 16 16 18 19 20 20 21 23 24 27 28 28 29 30 34 38 40 42 45 48 51 51 50 49 55 54 53 52 47 43 42 41 39 36 35 36 37 39 39 40
18 17 17 17 19 20 21 23 24 24 25 27 29 31 32 33 36 39 41 43 44 48 51 51 51 52 56 54 53 52 48 45 42 41 40 38 36 38 39 38 38 39
19 19 19 20 21 23 24 25 26 26 28 29 30 33 36 37 39 42 43 45 47 49 51 53 51 54 56 55 54 52 49 47 45 41 40 40 39 39 40 39 38 37
21 22 22 23 24 26 27 28 28 30 31 32 35 37 39 41 42 45 47 48 50 51 52 52 51 56 58 56 54 52 50 47 44 44 41 40 41 41 39 38 38 41
24 25 25 26 26 28 29 30 31 32 33 35 37 39 41 43 45 47 49 50 52 53 52 52 51 62 60 58 54 52 50 47 43 41 39 38 41 41 40 38 40 42
26 26 27 27 29 30 31 33 34 34 35 37 39 41 43 45 47 47 49 51 52 53 53 54 53 63 61 58 55 53 53 46 42 39 37 37 37 38 38 41 42 43
30 31 31 32 33 34 34 36 37 37 37 39 41 43 46 48 48 49 48 49 50 53 55 54 54 59 61 57 55 55 50 44 40 39 38 36 35 37 39 43 44 45
34 35 36 35 35 36 38 38 38 37 38 41 43 44 46 48 49 48 47 47 49 53 55 55 53 57 59 56 54 52 48 43 40 40 38 38 37 38 41 44 46 49
37 38 39 38 36 37 40 41 41 41 40 42 44 43 46 50 48 44 44 47 49 51 53 53 51 54 56 55 53 51 47 41 41 40 39 40 42 44 45 45 45 46
38 41 42 41 42 41 41 43 44 45 45 46 46 46 49 50 48 42 45 47 50 49 49 49 48 50 51 54 54 52 50 44 42 41 41 42 46 47 46 40 43 50
Wind_Direction
290 288 292 296 295 294 290 291 294 297 298 300 303 304 305 304 307 309 312 318 319 321 320 321 325 327 327 324 322 321 316 320 319 317 318 318 317 315 313 313 300 nan
290 289 287 291 292 290 288 292 293 298 299 297 301 303 303 308 311 312 316 318 319 323 324 324 325 326 327 325 322 322 320 318 319 316 318 318 316 312 310 306 307 298
289 289 290 295 296 297 298 291 292 298 298 299 304 307 312 312 318 317 320 321 323 326 327 325 325 326 328 326 324 322 321 320 320 318 315 316 313 310 306 309 308 306
291 289 288 294 297 297 294 290 292 297 300 305 311 314 316 316 320 323 318 322 321 325 326 327 328 329 329 328 324 322 323 322 321 319 314 314 313 307 304 300 298 295
289 287 286 292 295 295 291 295 303 303 308 310 317 315 318 320 320 320 316 318 319 324 325 327 329 330 329 327 324 325 325 322 322 321 319 315 313 308 304 297 292 295
282 282 286 292 296 295 296 301 308 309 313 318 319 316 320 322 321 320 319 320 321 327 329 328 329 331 329 327 326 328 326 324 324 324 319 319 317 307 300 300 301 300
289 289 295 296 301 299 299 306 311 311 315 318 314 319 321 321 322 325 325 324 327 329 330 329 329 330 328 326 327 329 327 326 326 325 319 320 319 309 301 296 297 298
299 296 299 298 304 301 303 310 315 313 316 319 323 323 322 326 326 329 328 327 329 329 330 329 329 330 328 327 329 331 330 329 331 327 324 325 321 314 309 304 299 297
305 304 303 307 311 306 319 322 320 320 322 327 326 325 328 333 333 334 331 331 333 332 332 331 331 331 328 328 330 332 333 335 337 334 330 330 324 319 318 314 311 307
311 308 318 319 322 317 325 329 329 330 329 330 331 330 335 339 339 338 334 335 335 334 335 332 332 332 331 330 330 331 332 334 335 332 328 327 324 320 320 319 319 316
318 317 321 324 327 325 331 334 335 334 331 334 334 339 338 338 338 337 334 333 334 334 334 332 332 332 331 329 326 326 327 325 323 320 320 323 321 318 320 319 318 317
319 318 323 331 333 334 334 334 333 331 333 334 336 339 336 339 336 335 332 333 332 331 331 330 328 328 328 326 324 323 323 321 318 317 317 319 318 315 317 317 315 315
319 319 320 332 332 328 326 328 332 335 338 338 335 337 337 338 335 334 331 331 330 328 328 327 324 324 325 326 322 319 320 318 317 317 316 316 313 313 317 317 312 308
316 318 324 330 328 320 320 327 329 327 327 326 329 333 335 335 335 335 331 330 330 329 327 324 323 323 323 325 322 318 315 315 313 313 315 315 312 312 317 320 316 311
309 315 324 328 323 319 322 325 323 320 320 321 326 329 329 331 332 332 329 330 329 329 327 325 326 324 321 322 321 318 314 312 312 311 311 313 312 311 315 318 316 314
308 313 323 324 320 321 325 325 322 321 322 322 325 328 326 326 323 325 327 328 329 329 327 328 328 325 323 324 320 316 314 310 309 309 308 310 310 310 314 316 314 312
307 317 318 318 318 320 322 324 325 322 321 320 321 325 325 321 318 321 324 325 327 328 329 328 328 326 325 322 320 319 313 309 308 308 308 309 310 310 310 312 310 310
312 314 312 313 313 318 321 321 320 320 319 317 316 318 319 316 316 318 320 322 325 328 329 329 328 326 325 323 319 316 313 308 307 306 308 309 309 310 310 308 307 307
306 307 307 308 312 315 315 315 316 317 316 316 318 314 313 313 311 314 318 321 324 328 330 329 328 324 324 321 317 315 315 312 309 309 308 310 309 311 312 309 304 306
299 300 301 303 304 307 309 309 311 314 314 311 309 307 309 309 310 313 316 320 322 324 326 325 326 322 324 320 317 319 317 312 307 310 309 308 310 312 312 309 307 302
296 296 299 300 302 304 306 306 310 310 312 309 308 308 308 308 309 312 314 317 319 320 322 322 320 322 324 323 320 319 318 313 309 310 306 305 308 311 312 308 305 302
298 297 298 299 301 303 306 308 309 309 311 308 305 304 304 304 306 311 314 315 316 317 320 320 316 321 323 322 319 320 323 311 310 313 311 307 307 307 306 299 301 299
297 297 296 298 300 302 305 306 308 309 309 306 305 304 304 304 306 309 307 311 314 316 317 316 312 319 322 325 322 324 318 313 316 315 315 314 313 309 307 303 304 301
294 294 294 296 299 304 304 305 306 305 304 301 302 304 305 305 304 305 305 307 312 313 314 313 314 319 325 326 324 326 321 316 315 317 319 320 318 314 311 306 305 307
291 291 292 295 297 300 301 302 304 301 300 297 299 298 297 296 302 306 308 305 311 312 312 314 315 317 325 325 327 325 320 315 316 318 321 322 318 315 312 303 297 300
288 289 292 295 295 297 297 295 295 297 297 295 292 292 292 296 303 308 308 307 306 308 310 313 315 309 321 325 325 323 323 317 316 318 320 319 318 312 300 295 296 295